Time,TemperatureF,DewpointF,PressureIn,WindDirection,WindDirectionDegrees,WindSpeedMPH,WindSpeedGustMPH,Humidity,HourlyPrecipIn,Conditions,Clouds,dailyrainin,SoftwareType,DateUTC
2014-12-25 00:04:00,57.6,38.5,29.81,North,349,2.0,11.0,49,0.00,,,0.00,meteobridge,2014-12-25 08:04:00,
2014-12-25 00:09:00,57.6,39.6,29.80,NNW,334,4.9,12.0,51,0.00,,,0.00,meteobridge,2014-12-25 08:09:00,
2014-12-25 00:14:00,57.2,39.2,29.81,NW,321,4.9,10.0,51,0.00,,,0.00,meteobridge,2014-12-25 08:14:00,
2014-12-25 00:19:00,56.8,38.8,29.81,NNW,337,6.0,12.0,51,0.00,,,0.00,meteobridge,2014-12-25 08:19:00,
2014-12-25 00:24:00,56.7,39.2,29.81,NNW,331,0.9,6.0,52,0.00,,,0.00,meteobridge,2014-12-25 08:24:00,
2014-12-25 00:29:00,56.1,39.7,29.81,NNW,346,0.9,7.0,54,0.00,,,0.00,meteobridge,2014-12-25 08:29:00,
2014-12-25 00:34:00,55.9,39.6,29.82,NE,44,6.9,9.0,54,0.00,,,0.00,meteobridge,2014-12-25 08:34:00,
2014-12-25 00:39:00,55.6,39.7,29.83,NNE,28,8.9,12.0,55,0.00,,,0.00,meteobridge,2014-12-25 08:39:00,
2014-12-25 00:44:00,55.6,40.1,29.83,NNE,16,4.0,7.0,56,0.00,,,0.00,meteobridge,2014-12-25 08:44:00,
2014-12-25 00:49:00,55.0,40.1,29.82,NW,324,4.9,9.0,57,0.00,,,0.00,meteobridge,2014-12-25 08:49:00,
2014-12-25 00:54:00,54.7,40.3,29.82,NNW,338,6.9,9.0,58,0.00,,,0.00,meteobridge,2014-12-25 08:54:00,
2014-12-25 00:59:00,54.5,40.1,29.83,NNE,14,11.0,11.0,58,0.00,,,0.00,meteobridge,2014-12-25 08:59:00,
2014-12-25 01:04:00,54.9,37.6,29.83,NNE,24,8.9,11.0,52,0.00,,,0.00,meteobridge,2014-12-25 09:04:00,
2014-12-25 01:09:00,55.4,37.6,29.82,NE,36,2.0,12.0,51,0.00,,,0.00,meteobridge,2014-12-25 09:09:00,
2014-12-25 01:14:00,55.9,39.9,29.83,NNE,17,4.9,9.0,55,0.00,,,0.00,meteobridge,2014-12-25 09:14:00,
2014-12-25 01:19:00,56.1,38.3,29.83,North,9,4.9,7.0,51,0.00,,,0.00,meteobridge,2014-12-25 09:19:00,
2014-12-25 01:24:00,55.8,40.3,29.82,North,11,4.9,9.0,56,0.00,,,0.00,meteobridge,2014-12-25 09:24:00,
2014-12-25 01:29:00,55.8,37.9,29.83,NNW,334,6.0,9.0,51,0.00,,,0.00,meteobridge,2014-12-25 09:29:00,
2014-12-25 01:34:00,56.5,39.0,29.83,North,11,6.9,8.0,52,0.00,,,0.00,meteobridge,2014-12-25 09:34:00,
2014-12-25 01:39:00,56.5,38.1,29.83,NNE,16,4.9,7.0,50,0.00,,,0.00,meteobridge,2014-12-25 09:39:00,
2014-12-25 01:44:00,55.8,40.3,29.82,NNW,331,2.9,7.0,56,0.00,,,0.00,meteobridge,2014-12-25 09:44:00,
2014-12-25 01:50:00,55.4,36.5,29.83,NNE,20,6.9,9.0,49,0.00,,,0.00,meteobridge,2014-12-25 09:50:00,
2014-12-25 01:55:00,55.9,39.6,29.83,NNW,333,0.9,5.0,54,0.00,,,0.00,meteobridge,2014-12-25 09:55:00,
2014-12-25 02:00:00,55.4,40.5,29.83,NW,310,0.0,4.0,57,0.00,,,0.00,meteobridge,2014-12-25 10:00:00,
2014-12-25 02:05:00,54.3,40.8,29.84,WNW,296,0.0,1.0,60,0.00,,,0.00,meteobridge,2014-12-25 10:05:00,
2014-12-25 02:10:00,53.4,40.3,29.84,NW,311,0.0,0.0,61,0.00,,,0.00,meteobridge,2014-12-25 10:10:00,
2014-12-25 02:15:00,52.2,40.3,29.85,NW,320,0.9,5.0,64,0.00,,,0.00,meteobridge,2014-12-25 10:15:00,
2014-12-25 02:20:00,51.4,40.5,29.85,NW,320,0.0,0.0,66,0.00,,,0.00,meteobridge,2014-12-25 10:20:00,
2014-12-25 02:25:00,50.7,40.1,29.85,NW,315,2.9,4.0,67,0.00,,,0.00,meteobridge,2014-12-25 10:25:00,
2014-12-25 02:30:00,50.5,39.9,29.85,NW,315,0.0,2.0,67,0.00,,,0.00,meteobridge,2014-12-25 10:30:00,
2014-12-25 02:35:00,50.5,39.9,29.85,NW,316,2.9,3.0,67,0.00,,,0.00,meteobridge,2014-12-25 10:35:00,
2014-12-25 02:40:00,50.5,39.6,29.85,NW,311,4.0,4.0,66,0.00,,,0.00,meteobridge,2014-12-25 10:40:00,
2014-12-25 02:45:00,51.1,40.1,29.85,NNW,332,2.0,5.0,66,0.00,,,0.00,meteobridge,2014-12-25 10:45:00,
2014-12-25 02:50:00,51.4,39.2,29.85,NNE,17,4.0,8.0,63,0.00,,,0.00,meteobridge,2014-12-25 10:50:00,
2014-12-25 02:55:00,52.3,39.4,29.85,North,9,2.0,5.0,61,0.00,,,0.00,meteobridge,2014-12-25 10:55:00,
2014-12-25 03:00:00,52.9,38.1,29.85,NNE,21,0.0,8.0,57,0.00,,,0.00,meteobridge,2014-12-25 11:00:00,
2014-12-25 03:05:00,52.9,39.4,29.85,NW,325,0.9,6.0,60,0.00,,,0.00,meteobridge,2014-12-25 11:05:00,
2014-12-25 03:10:00,52.5,39.0,29.85,North,5,2.0,4.0,60,0.00,,,0.00,meteobridge,2014-12-25 11:10:00,
2014-12-25 03:15:00,52.9,36.7,29.85,NE,47,2.9,9.0,54,0.00,,,0.00,meteobridge,2014-12-25 11:15:00,
2014-12-25 03:20:00,54.0,36.7,29.85,NE,51,2.9,9.0,52,0.00,,,0.00,meteobridge,2014-12-25 11:20:00,
2014-12-25 03:25:00,54.9,36.1,29.84,NNE,24,4.9,12.0,49,0.00,,,0.00,meteobridge,2014-12-25 11:25:00,
2014-12-25 03:30:00,55.2,36.0,29.84,NNE,18,2.9,7.0,48,0.00,,,0.00,meteobridge,2014-12-25 11:30:00,
2014-12-25 03:35:00,55.8,35.2,29.85,NE,44,4.0,4.0,46,0.00,,,0.00,meteobridge,2014-12-25 11:35:00,
2014-12-25 03:40:00,55.8,34.7,29.84,North,9,0.0,6.0,45,0.00,,,0.00,meteobridge,2014-12-25 11:40:00,
2014-12-25 03:45:00,55.6,36.1,29.84,NNW,333,2.9,6.0,48,0.00,,,0.00,meteobridge,2014-12-25 11:45:00,
2014-12-25 03:50:00,55.2,33.6,29.84,WNW,286,2.9,4.0,44,0.00,,,0.00,meteobridge,2014-12-25 11:50:00,
2014-12-25 03:55:00,55.0,37.8,29.84,NW,319,0.0,2.0,52,0.00,,,0.00,meteobridge,2014-12-25 11:55:00,
2014-12-25 04:00:00,54.3,37.9,29.84,WNW,284,0.9,2.0,54,0.00,,,0.00,meteobridge,2014-12-25 12:00:00,
2014-12-25 04:05:00,53.8,36.5,29.84,NNW,335,0.0,5.0,52,0.00,,,0.00,meteobridge,2014-12-25 12:05:00,
2014-12-25 04:10:00,53.4,36.3,29.84,NNE,19,0.0,2.0,52,0.00,,,0.00,meteobridge,2014-12-25 12:10:00,
2014-12-25 04:15:00,53.2,33.1,29.84,NE,42,2.0,5.0,46,0.00,,,0.00,meteobridge,2014-12-25 12:15:00,
2014-12-25 04:20:00,53.2,32.4,29.83,ESE,111,11.0,11.0,45,0.00,,,0.00,meteobridge,2014-12-25 12:20:00,
2014-12-25 04:25:00,54.0,31.5,29.83,NNE,32,4.0,4.0,42,0.00,,,0.00,meteobridge,2014-12-25 12:25:00,
2014-12-25 04:30:00,54.3,31.6,29.83,NE,39,2.0,8.0,42,0.00,,,0.00,meteobridge,2014-12-25 12:30:00,
2014-12-25 04:35:00,54.9,30.9,29.83,SE,134,4.0,7.0,40,0.00,,,0.00,meteobridge,2014-12-25 12:35:00,
2014-12-25 04:40:00,54.9,30.9,29.83,ESE,115,2.9,6.0,40,0.00,,,0.00,meteobridge,2014-12-25 12:40:00,
2014-12-25 04:45:00,54.9,31.6,29.83,NE,43,0.0,5.0,41,0.00,,,0.00,meteobridge,2014-12-25 12:45:00,
2014-12-25 04:50:00,54.7,31.5,29.83,NE,40,2.9,5.0,41,0.00,,,0.00,meteobridge,2014-12-25 12:50:00,
2014-12-25 04:55:00,54.7,32.0,29.83,ENE,63,2.9,7.0,42,0.00,,,0.00,meteobridge,2014-12-25 12:55:00,
2014-12-25 05:00:00,54.3,31.6,29.83,NE,48,4.0,4.0,42,0.00,,,0.00,meteobridge,2014-12-25 13:00:00,
2014-12-25 05:05:00,54.1,30.9,29.83,NE,46,2.0,8.0,41,0.00,,,0.00,meteobridge,2014-12-25 13:05:00,
2014-12-25 05:10:00,54.1,31.5,29.83,NNW,340,0.0,3.0,42,0.00,,,0.00,meteobridge,2014-12-25 13:10:00,
2014-12-25 05:15:00,53.8,33.4,29.83,WSW,251,0.0,2.0,46,0.00,,,0.00,meteobridge,2014-12-25 13:15:00,
2014-12-25 05:20:00,53.1,35.4,29.83,WSW,251,0.0,0.0,51,0.00,,,0.00,meteobridge,2014-12-25 13:20:00,
2014-12-25 05:25:00,52.3,35.8,29.83,WNW,283,0.0,3.0,53,0.00,,,0.00,meteobridge,2014-12-25 13:25:00,
2014-12-25 05:30:00,51.8,35.6,29.83,WNW,283,0.0,0.0,54,0.00,,,0.00,meteobridge,2014-12-25 13:30:00,
2014-12-25 05:35:00,51.3,35.6,29.83,WNW,283,0.0,1.0,55,0.00,,,0.00,meteobridge,2014-12-25 13:35:00,
2014-12-25 05:40:00,50.5,35.4,29.83,NNW,332,0.0,2.0,56,0.00,,,0.00,meteobridge,2014-12-25 13:40:00,
2014-12-25 05:45:00,50.2,33.6,29.83,NE,46,2.9,5.0,53,0.00,,,0.00,meteobridge,2014-12-25 13:45:00,
2014-12-25 05:50:00,49.8,32.0,29.83,ESE,103,4.9,7.0,50,0.00,,,0.00,meteobridge,2014-12-25 13:50:00,
2014-12-25 05:55:00,50.4,29.8,29.83,ENE,67,4.0,11.0,45,0.00,,,0.00,meteobridge,2014-12-25 13:55:00,
2014-12-25 06:00:00,51.4,29.1,29.84,NNE,15,0.0,6.0,42,0.00,,,0.00,meteobridge,2014-12-25 14:00:00,
2014-12-25 06:05:00,52.2,30.4,29.84,NNE,15,0.0,11.0,43,0.00,,,0.00,meteobridge,2014-12-25 14:05:00,
2014-12-25 06:10:00,52.3,30.6,29.84,NW,316,0.0,2.0,43,0.00,,,0.00,meteobridge,2014-12-25 14:10:00,
2014-12-25 06:15:00,52.0,31.3,29.84,NNW,330,0.0,3.0,45,0.00,,,0.00,meteobridge,2014-12-25 14:15:00,
2014-12-25 06:20:00,51.4,31.3,29.84,NNW,330,0.0,0.0,46,0.00,,,0.00,meteobridge,2014-12-25 14:20:00,
2014-12-25 06:25:00,51.1,32.5,29.84,SE,144,0.9,2.0,49,0.00,,,0.00,meteobridge,2014-12-25 14:25:00,
2014-12-25 06:30:00,50.4,32.4,29.84,SE,144,0.0,2.0,50,0.00,,,0.00,meteobridge,2014-12-25 14:30:00,
2014-12-25 06:35:00,49.6,32.7,29.84,SSW,208,2.9,3.0,52,0.00,,,0.00,meteobridge,2014-12-25 14:35:00,
2014-12-25 06:40:00,48.9,31.6,29.84,NW,323,0.0,3.0,51,0.00,,,0.00,meteobridge,2014-12-25 14:40:00,
2014-12-25 06:45:00,48.6,32.2,29.84,WNW,294,2.0,3.0,53,0.00,,,0.00,meteobridge,2014-12-25 14:45:00,
2014-12-25 06:50:00,48.2,32.4,29.84,NW,321,2.9,5.0,54,0.00,,,0.00,meteobridge,2014-12-25 14:50:00,
2014-12-25 06:55:00,47.8,32.5,29.85,NW,318,0.0,3.0,55,0.00,,,0.00,meteobridge,2014-12-25 14:55:00,
2014-12-25 07:00:00,47.7,33.3,29.85,NW,318,0.0,0.0,57,0.00,,,0.00,meteobridge,2014-12-25 15:00:00,
2014-12-25 07:05:00,47.3,32.9,29.85,NNW,331,2.9,3.0,57,0.00,,,0.00,meteobridge,2014-12-25 15:05:00,
2014-12-25 07:10:00,47.1,33.1,29.85,NNW,331,0.0,0.0,58,0.00,,,0.00,meteobridge,2014-12-25 15:10:00,
2014-12-25 07:15:00,46.9,33.4,29.85,NNW,331,0.0,0.0,59,0.00,,,0.00,meteobridge,2014-12-25 15:15:00,
2014-12-25 07:20:00,46.6,33.8,29.85,NNW,331,0.0,0.0,61,0.00,,,0.00,meteobridge,2014-12-25 15:20:00,
2014-12-25 07:25:00,46.2,33.4,29.86,NNW,331,0.0,0.0,61,0.00,,,0.00,meteobridge,2014-12-25 15:25:00,
2014-12-25 07:30:00,46.0,33.8,29.86,NW,321,0.0,1.0,62,0.00,,,0.00,meteobridge,2014-12-25 15:30:00,
2014-12-25 07:35:00,46.2,33.4,29.86,NNW,335,2.0,2.0,61,0.00,,,0.00,meteobridge,2014-12-25 15:35:00,
2014-12-25 07:40:00,46.4,34.2,29.85,ENE,59,0.0,1.0,62,0.00,,,0.00,meteobridge,2014-12-25 15:40:00,
2014-12-25 07:45:00,46.6,34.7,29.86,ENE,59,0.0,0.0,63,0.00,,,0.00,meteobridge,2014-12-25 15:45:00,
2014-12-25 07:50:00,46.8,34.9,29.86,ENE,59,0.0,2.0,63,0.00,,,0.00,meteobridge,2014-12-25 15:50:00,
2014-12-25 07:55:00,47.7,34.0,29.86,NW,315,0.0,4.0,59,0.00,,,0.00,meteobridge,2014-12-25 15:55:00,
2014-12-25 08:00:00,48.2,34.9,29.87,WSW,244,0.0,1.0,60,0.00,,,0.00,meteobridge,2014-12-25 16:00:00,
2014-12-25 08:05:00,48.9,34.0,29.87,South,175,0.0,4.0,56,0.00,,,0.00,meteobridge,2014-12-25 16:05:00,
2014-12-25 08:10:00,49.8,34.7,29.88,NE,49,2.0,4.0,56,0.00,,,0.00,meteobridge,2014-12-25 16:10:00,
2014-12-25 08:15:00,50.7,34.2,29.88,ENE,72,0.9,3.0,53,0.00,,,0.00,meteobridge,2014-12-25 16:15:00,
2014-12-25 08:20:00,51.4,33.4,29.88,East,84,0.0,0.0,50,0.00,,,0.00,meteobridge,2014-12-25 16:20:00,
2014-12-25 08:25:00,52.3,32.2,29.88,South,183,2.9,5.0,46,0.00,,,0.00,meteobridge,2014-12-25 16:25:00,
2014-12-25 08:30:00,53.4,32.0,29.88,SSE,147,0.9,4.0,44,0.00,,,0.00,meteobridge,2014-12-25 16:30:00,
2014-12-25 08:35:00,54.5,33.1,29.89,SE,142,0.0,1.0,44,0.00,,,0.00,meteobridge,2014-12-25 16:35:00,
2014-12-25 08:40:00,55.2,33.1,29.88,SE,142,0.0,4.0,43,0.00,,,0.00,meteobridge,2014-12-25 16:40:00,
2014-12-25 08:45:00,56.1,32.7,29.88,SSW,213,2.9,5.0,41,0.00,,,0.00,meteobridge,2014-12-25 16:45:00,
2014-12-25 08:50:00,56.8,31.5,29.88,SSW,210,0.9,2.0,38,0.00,,,0.00,meteobridge,2014-12-25 16:50:00,
2014-12-25 08:55:00,57.6,33.4,29.89,ESE,104,0.0,4.0,40,0.00,,,0.00,meteobridge,2014-12-25 16:55:00,
2014-12-25 09:00:00,58.3,32.7,29.89,SE,140,4.0,7.0,38,0.00,,,0.00,meteobridge,2014-12-25 17:00:00,
2014-12-25 09:05:00,58.8,32.0,29.88,SE,132,0.9,7.0,36,0.00,,,0.00,meteobridge,2014-12-25 17:05:00,
2014-12-25 09:10:00,59.4,30.9,29.88,ESE,119,0.0,4.0,34,0.00,,,0.00,meteobridge,2014-12-25 17:10:00,
2014-12-25 09:15:00,59.7,32.0,29.88,East,92,0.9,6.0,35,0.00,,,0.00,meteobridge,2014-12-25 17:15:00,
2014-12-25 09:20:00,60.1,30.2,29.89,ENE,63,4.9,9.0,32,0.00,,,0.00,meteobridge,2014-12-25 17:20:00,
2014-12-25 09:25:00,60.3,29.5,29.88,North,5,0.0,2.0,31,0.00,,,0.00,meteobridge,2014-12-25 17:25:00,
2014-12-25 09:30:00,60.6,28.2,29.89,WNW,298,2.9,7.0,29,0.00,,,0.00,meteobridge,2014-12-25 17:30:00,
2014-12-25 09:35:00,61.0,27.7,29.90,NW,318,0.9,3.0,28,0.00,,,0.00,meteobridge,2014-12-25 17:35:00,
2014-12-25 09:40:00,61.0,27.7,29.90,North,355,0.0,0.0,28,0.00,,,0.00,meteobridge,2014-12-25 17:40:00,
2014-12-25 09:45:00,61.3,29.7,29.90,ENE,71,2.0,4.0,30,0.00,,,0.00,meteobridge,2014-12-25 17:45:00,
2014-12-25 09:50:00,61.9,30.0,29.90,NW,325,2.9,7.0,30,0.00,,,0.00,meteobridge,2014-12-25 17:50:00,
2014-12-25 09:55:00,62.1,30.2,29.90,WNW,290,2.0,9.0,30,0.00,,,0.00,meteobridge,2014-12-25 17:55:00,
2014-12-25 10:00:00,61.9,31.6,29.90,NNW,346,0.9,5.0,32,0.00,,,0.00,meteobridge,2014-12-25 18:00:00,
2014-12-25 10:05:00,61.7,29.1,29.90,NNE,18,4.0,16.0,29,0.00,,,0.00,meteobridge,2014-12-25 18:05:00,
2014-12-25 10:10:00,61.7,28.2,29.91,NE,47,6.9,10.0,28,0.00,,,0.00,meteobridge,2014-12-25 18:10:00,
2014-12-25 10:15:00,61.7,29.1,29.91,NE,44,6.9,7.0,29,0.00,,,0.00,meteobridge,2014-12-25 18:15:00,
2014-12-25 10:20:00,61.7,28.2,29.90,NNE,13,4.9,9.0,28,0.00,,,0.00,meteobridge,2014-12-25 18:20:00,
2014-12-25 10:25:00,61.9,28.4,29.90,North,5,4.9,6.0,28,0.00,,,0.00,meteobridge,2014-12-25 18:25:00,
2014-12-25 10:30:00,62.1,28.6,29.90,NE,42,6.0,8.0,28,0.00,,,0.00,meteobridge,2014-12-25 18:30:00,
2014-12-25 10:35:00,62.2,27.0,29.90,NNW,348,6.0,11.0,26,0.00,,,0.00,meteobridge,2014-12-25 18:35:00,
2014-12-25 10:40:00,62.2,27.9,29.90,ENE,69,8.1,8.1,27,0.00,,,0.00,meteobridge,2014-12-25 18:40:00,
2014-12-25 10:45:00,62.4,28.0,29.91,NE,39,4.9,10.0,27,0.00,,,0.00,meteobridge,2014-12-25 18:45:00,
2014-12-25 10:50:00,62.4,28.0,29.90,NE,54,8.9,14.0,27,0.00,,,0.00,meteobridge,2014-12-25 18:50:00,
2014-12-25 10:55:00,62.4,26.1,29.90,North,9,4.0,10.0,25,0.00,,,0.00,meteobridge,2014-12-25 18:55:00,
2014-12-25 11:00:00,62.4,28.0,29.90,NE,34,6.9,14.0,27,0.00,,,0.00,meteobridge,2014-12-25 19:00:00,
2014-12-25 11:05:00,62.4,27.1,29.90,NE,36,6.0,11.0,26,0.00,,,0.00,meteobridge,2014-12-25 19:05:00,
2014-12-25 11:10:00,62.6,28.2,29.89,NNW,327,6.9,13.0,27,0.00,,,0.00,meteobridge,2014-12-25 19:10:00,
2014-12-25 11:16:00,62.8,29.1,29.89,NW,310,4.0,9.0,28,0.00,,,0.00,meteobridge,2014-12-25 19:16:00,
2014-12-25 11:21:00,63.0,27.5,29.88,NNW,344,4.0,14.0,26,0.00,,,0.00,meteobridge,2014-12-25 19:21:00,
2014-12-25 11:26:00,63.1,29.5,29.88,North,351,6.0,10.0,28,0.00,,,0.00,meteobridge,2014-12-25 19:26:00,
2014-12-25 11:36:00,63.3,27.9,29.88,NE,36,6.0,13.0,26,0.00,,,0.00,meteobridge,2014-12-25 19:36:00,
2014-12-25 11:41:00,63.3,28.8,29.88,North,5,4.0,9.0,27,0.00,,,0.00,meteobridge,2014-12-25 19:41:00,
2014-12-25 11:46:00,63.7,27.1,29.88,NNW,348,8.1,11.0,25,0.00,,,0.00,meteobridge,2014-12-25 19:46:00,
2014-12-25 11:51:00,63.9,28.2,29.88,NW,322,2.9,7.0,26,0.00,,,0.00,meteobridge,2014-12-25 19:51:00,
2014-12-25 11:56:00,64.0,28.4,29.88,WNW,301,2.0,7.0,26,0.00,,,0.00,meteobridge,2014-12-25 19:56:00,
2014-12-25 12:01:00,64.0,26.6,29.88,NW,320,4.0,7.0,24,0.00,,,0.00,meteobridge,2014-12-25 20:01:00,
2014-12-25 12:06:00,64.2,27.7,29.87,NW,317,4.0,6.0,25,0.00,,,0.00,meteobridge,2014-12-25 20:06:00,
2014-12-25 12:11:00,64.6,25.9,29.88,NE,38,2.9,6.0,23,0.00,,,0.00,meteobridge,2014-12-25 20:11:00,
2014-12-25 12:16:00,64.6,27.0,29.87,North,10,2.0,5.0,24,0.00,,,0.00,meteobridge,2014-12-25 20:16:00,
2014-12-25 12:21:00,64.4,27.9,29.87,NNE,22,4.0,4.0,25,0.00,,,0.00,meteobridge,2014-12-25 20:21:00,
2014-12-25 12:26:00,64.8,29.1,29.87,ENE,61,0.9,5.0,26,0.00,,,0.00,meteobridge,2014-12-25 20:26:00,
2014-12-25 12:31:00,64.9,27.3,29.87,NE,44,2.0,6.0,24,0.00,,,0.00,meteobridge,2014-12-25 20:31:00,
2014-12-25 12:36:00,65.1,27.5,29.88,NNW,338,2.9,8.0,24,0.00,,,0.00,meteobridge,2014-12-25 20:36:00,
2014-12-25 12:41:00,65.5,34.9,29.87,South,184,2.0,6.0,32,0.00,,,0.00,meteobridge,2014-12-25 20:41:00,
2014-12-25 12:46:00,65.7,33.4,29.87,South,184,0.9,6.0,30,0.00,,,0.00,meteobridge,2014-12-25 20:46:00,
2014-12-25 12:51:00,65.5,34.0,29.87,SSW,213,4.9,6.0,31,0.00,,,0.00,meteobridge,2014-12-25 20:51:00,
2014-12-25 12:56:00,65.5,32.4,29.87,West,277,4.9,7.0,29,0.00,,,0.00,meteobridge,2014-12-25 20:56:00,
2014-12-25 13:01:00,64.9,33.6,29.87,South,188,4.9,6.0,31,0.00,,,0.00,meteobridge,2014-12-25 21:01:00,
2014-12-25 13:06:00,64.9,32.0,29.86,SW,217,2.0,5.0,29,0.00,,,0.00,meteobridge,2014-12-25 21:06:00,
2014-12-25 13:11:00,65.1,32.9,29.86,SW,232,2.9,7.0,30,0.00,,,0.00,meteobridge,2014-12-25 21:11:00,
2014-12-25 13:16:00,65.5,33.3,29.86,SSW,208,4.0,8.0,30,0.00,,,0.00,meteobridge,2014-12-25 21:16:00,
2014-12-25 13:21:00,65.5,28.8,29.85,WSW,254,0.9,5.0,25,0.00,,,0.00,meteobridge,2014-12-25 21:21:00,
2014-12-25 13:26:00,65.5,26.8,29.85,West,269,4.0,6.0,23,0.00,,,0.00,meteobridge,2014-12-25 21:26:00,
2014-12-25 13:31:00,65.5,27.7,29.85,SW,231,4.9,6.0,24,0.00,,,0.00,meteobridge,2014-12-25 21:31:00,
2014-12-25 13:36:00,65.7,26.8,29.85,NNW,331,9.0,9.0,23,0.00,,,0.00,meteobridge,2014-12-25 21:36:00,
2014-12-25 13:41:00,65.5,27.7,29.85,North,9,11.0,11.0,24,0.00,,,0.00,meteobridge,2014-12-25 21:41:00,
2014-12-25 13:46:00,65.5,26.8,29.85,NW,311,8.9,9.0,23,0.00,,,0.00,meteobridge,2014-12-25 21:46:00,
2014-12-25 13:51:00,65.3,27.5,29.85,NNW,344,2.0,9.0,24,0.00,,,0.00,meteobridge,2014-12-25 21:51:00,
2014-12-25 13:56:00,65.1,26.4,29.85,NNE,32,2.0,11.0,23,0.00,,,0.00,meteobridge,2014-12-25 21:56:00,
2014-12-25 14:01:00,65.1,27.5,29.85,NNE,14,6.0,10.0,24,0.00,,,0.00,meteobridge,2014-12-25 22:01:00,